DELTA 1 DEB, 3051

Orbit data source: Space-Track

DELTA 1 DEB, 3051 is space debris in SSO originally from a launch on Fri, 10 Nov 1967 UTC launched from the Air Force Western Test Range (AFWTR). Debris objects in space refer to the collection of defunct objects orbiting the Earth. Examples of debris include non-operational satellites, rocket bodies, and fragments generated from explosions, collisions, or faulty payload assembly.

Loading next visibility...
Identifier
3051, 1967-114C
Orbit
SSO
Last TLE update
1 day ago
Origin
Manufacturer
Unknown
Mission
Spacecraft
Bus & Motor
Unknown
Mass
Unknown
Launch date (UTC)
1967-11-10 (57 years ago)
Launch vehicle
Unknown
Launch site
Air Force Western Test Range (AFWTR)
Object type
Payload
Rocket body
Debris
Shape & HBR
Unknown
Radar Cross Section
Small (<0.1 m²)

Expand to show TLE details & history

TLE from 1 day ago
0 DELTA 1 DEB
1  3051U 67114C   25108.92425624 -.00000012  00000-0  16848-3 0  9992
2  3051 101.1109  96.3249 0088944 252.0621 165.1474 12.62271972646168
Epoch: 2025-04-18T22:10Z
Definitive object data (Epoch: 2025-04-18T22:10:55.739Z)
Latitude
55.91432°
Longitude
-100.46855°
Altitude
1,489.754 km
Speed
7.093 km/s
True Right ascension
05h 18m 09s
True Declination
55° 46' 10"
Sunlit
Object was in daylight at TLE epoch
Visualization TLE readout
Latitude
-66.64423°
Longitude
70.43259°
Altitude
1,369.381 km
Speed
7.206 km/s
Apparent Right ascension
17h 59m 50s
Apparent Declination
-55° 25' 44"
Sunlit
Object is in daylight
Visualization observer readout
Local Sidereal Time
06:48:20
Azimuth
156.615° SSE
Elevation
-72.528°
Doppler factor
1
Orbital elements
Apogee altitude
1,480.355 km
Perigee altitude
1,341.794 km
Semi-major axis
7,789.212 km
Eccentricity
0.0088944
Inclination
101.1109°
RAAN
96.3249°
Arg. of periapsis
252.0621°
True anomaly
165.40588°
Mean anomaly
165.1474°
Eccentric anomaly
165.27692°
Mean motion
3.15721 °/min
BSTAR
0.00016848
Orbital period
114.02 mins
Loading maneuver chart data...
Loading SW <> Apogee altitude chart data...
Loading historical data...
Loading historical data...
Loading historical data...
Loading historical data...
Loading historical data...
Loading historical data...
Loading historical data...
Other satellites on launch #114 in the year 1967 (1967-11-10 UTC)

DELTA 1 DEB Visibility forecast

Observer location: undefined°, undefined°

Span
Click to sort rows by Start time (UTC) header in descending order
Start Az.
Max El. time (UTC)
Max El. Az.
Max El.
End time (UTC)
End Az.
11 mins2025-04-20 00:36:28.969Z223.119° SW2025-04-20 00:42:28.969Z269.892° W19.658°2025-04-20 00:47:28.969Z309.551° NW
11 mins2025-04-20 10:41:28.969Z47.48° ENE2025-04-20 10:46:28.969Z91.484° ESE23.921°2025-04-20 10:52:28.969Z144.081° SSE
14 mins2025-04-20 12:32:28.969Z9.222° NNE2025-04-20 12:39:28.969Z284.904° WNW42.37°2025-04-20 12:46:28.969Z213.614° SW
6 mins2025-04-20 14:27:28.969Z330.23° NNW2025-04-20 14:29:28.969Z314.696° NW14.385°2025-04-20 14:33:28.969Z284.448° WNW
12 mins2025-04-20 21:35:28.969Z110.256° ESE2025-04-20 21:40:28.969Z63.736° ENE28.771°2025-04-20 21:47:28.969Z2.179° NNE
15 mins2025-04-20 23:25:28.969Z181.798° SSW2025-04-20 23:32:28.969Z258.774° W40.5°2025-04-20 23:40:28.969Z335.594° NNW
|